Needles, CA

1:54 PM PST on February 23, 2017 (GMT -0800)
Needles

Weather History for KEED - June, 2013

Change the Weather History Date:

Monday, June 17, 2013

  Actual Average Record
Temperature  
Mean Temperature 93 °F 91 °F  
Max Temperature 109 °F 105 °F 120 °F (1917)
Min Temperature 77 °F 78 °F 53 °F (1907)
Degree Days  
Heating Degree Days 0    
Cooling Degree Days 28    
Growing Degree Days 43 (Base 50)    
Moisture  
Dew Point 14 °F    
Average Humidity 6    
Maximum Humidity 10    
Minimum Humidity 4    
Precipitation  
Precipitation 0.00 in 0.00 in 0.00 in (2017)
Month to date precipitation 0.02  
Year to date precipitation 2.37  
Sea Level Pressure  
Sea Level Pressure 29.69 in    
Wind  
Wind Speed 5 mph (WSW)    
Max Wind Speed 16 mph    
Max Gust Speed 26 mph    
Visibility 10 miles    
Events      
T = Trace of Precipitation, MM = Missing Value Source: NWS Daily Summary

Daily Weather History Graph

Daily Weather History Graph

Search for Another Location

Airport or City:

Trip Planner

Search our weather history database for the weather conditions in past years. The results will help you decide how hot, cold, wet, or windy it might be!

Date:

Astronomy

Jun. 17, 2013 Rise Set
Actual Time 5:24 AM PDT 7:54 PM PDT
Civil Twilight 4:55 AM PDT 8:23 PM PDT
Nautical Twilight 4:18 AM PDT 9:00 PM PDT
Astronomical Twilight 3:38 AM PDT 9:40 PM PDT
Moon 1:48 PM PDT (6/17) 12:49 AM PDT (6/17)
Length of Visible Light 15h 28m
Length of Day
14h 29m
First Quarter, 61% of the Moon is Illuminated
Jun 17
First Quarter
Jun 23
Full
Jun 29
Last Quarter
Jul 8
New
Jul 15
First Quarter

Hourly Weather History & Observations

Time (PDT) Temp. Dew Point Humidity Pressure Visibility Wind Dir Wind Speed Gust Speed Precip Events Conditions
12:56 AM 86.0 °F 8.1 °F 5% 29.69 in 10.0 mi North 5.8 mph - N/A   Clear
1:56 AM 82.0 °F 10.0 °F 7% 29.70 in 10.0 mi Calm Calm - N/A   Clear
2:56 AM 81.0 °F 17.1 °F 9% 29.70 in 10.0 mi South 4.6 mph - N/A   Clear
3:56 AM 81.0 °F 19.0 °F 10% 29.70 in 10.0 mi WSW 4.6 mph - N/A   Clear
4:56 AM 77.0 °F 16.0 °F 10% 29.72 in 10.0 mi WNW 3.5 mph - N/A   Clear
5:56 AM 81.0 °F 12.9 °F 8% 29.73 in 10.0 mi SSW 3.5 mph - N/A   Clear
6:56 AM 82.9 °F 12.9 °F 7% 29.75 in 10.0 mi Calm Calm - N/A   Clear
7:56 AM 84.9 °F 14.0 °F 7% 29.76 in 10.0 mi Calm Calm - N/A   Clear
8:56 AM 89.1 °F 15.1 °F 6% 29.77 in 10.0 mi Calm Calm - N/A   Clear
9:56 AM 95.0 °F 16.0 °F 6% 29.76 in 10.0 mi Calm Calm - N/A   Clear
10:56 AM 100.0 °F 19.0 °F 5% 29.76 in 10.0 mi Calm Calm - N/A   Clear
11:56 AM 102.0 °F 21.0 °F 6% 29.74 in 10.0 mi Variable 4.6 mph - N/A   Clear
12:56 PM 105.1 °F 16.0 °F 4% 29.71 in 10.0 mi SW 10.4 mph - N/A   Clear
1:56 PM 107.1 °F 12.9 °F 4% 29.69 in 10.0 mi Calm Calm - N/A   Clear
2:56 PM 109.0 °F 12.9 °F 4% 29.67 in 10.0 mi SSW 10.4 mph 17.3 mph N/A   Clear
3:56 PM 109.9 °F 15.1 °F 4% 29.64 in 10.0 mi WSW 16.1 mph 26.5 mph N/A   Clear
4:56 PM 107.1 °F 15.1 °F 4% 29.63 in 10.0 mi SW 12.7 mph 18.4 mph N/A   Clear
5:56 PM 106.0 °F 10.9 °F 4% 29.62 in 10.0 mi West 13.8 mph 19.6 mph N/A   Clear
6:56 PM 105.1 °F 14.0 °F 4% 29.62 in 10.0 mi West 15.0 mph 18.4 mph N/A   Clear
7:56 PM 100.9 °F 10.0 °F 4% 29.62 in 10.0 mi West 9.2 mph - N/A   Clear
8:56 PM 97.0 °F 12.9 °F 5% 29.63 in 10.0 mi WSW 8.1 mph - N/A   Clear
9:56 PM 95.0 °F 14.0 °F 5% 29.64 in 10.0 mi SW 9.2 mph - N/A   Clear
10:56 PM 93.0 °F 15.1 °F 6% 29.62 in 10.0 mi WSW 9.2 mph - N/A   Clear
11:56 PM 91.0 °F 17.1 °F 7% 29.61 in 10.0 mi SW 5.8 mph - N/A   Clear